Location: Pacheco
(37.9835°N, 122.0752°W)
Time: 10:20:01
(UTC+00:00)

Cosmos 2278 Rocket - Pass Details

Date: 13 April 2024
Orbit: 839 x 846 km, 71.0° (Epoch: 24 May)

Event Time Altitude Azimuth Distance (km) Brightness Sun altitude
Rises 12:24:05 0° 327° (NNW) 3,413 5.3 -14.1°
Reaches altitude 10° 12:26:46 10° 317° (NW) 2,473 4.4 -13.6°
Maximum altitude 12:31:43 32° 257° (WSW) 1,419 2.8 -12.7°
Drops below altitude 10° 12:36:39 10° 196° (SSW) 2,457 4.3 -11.8°
Sets 12:39:18 0° 186° (S) 3,387 5.1 -11.3°
